Time,TemperatureF,DewpointF,PressureIn,WindDirection,WindDirectionDegrees,WindSpeedMPH,WindSpeedGustMPH,Humidity,HourlyPrecipIn,Conditions,Clouds,dailyrainin,SoftwareType,DateUTC
2014-09-30 00:01:00,59.6,34.0,29.72,NW,319,0.0,7.0,39,0.00,,,0.00,weatherlink.com 1.10,2014-09-30 06:01:00,
2014-09-30 00:16:00,58.8,35.0,29.72,NW,317,1.0,3.0,41,0.00,,,0.00,weatherlink.com 1.10,2014-09-30 06:16:00,
2014-09-30 00:32:00,58.2,36.0,29.72,NNW,333,1.0,3.0,43,0.00,,,0.00,weatherlink.com 1.10,2014-09-30 06:32:00,
2014-09-30 00:47:00,57.4,35.0,29.72,WNW,288,1.0,3.0,44,0.00,,,0.00,weatherlink.com 1.10,2014-09-30 06:47:00,
2014-09-30 01:02:00,56.5,36.0,29.72,NW,309,1.0,1.0,46,0.00,,,0.00,weatherlink.com 1.10,2014-09-30 07:02:00,
2014-09-30 01:17:00,55.8,36.0,29.72,NNW,335,0.0,2.0,48,0.00,,,0.00,weatherlink.com 1.10,2014-09-30 07:17:00,
2014-09-30 01:32:00,55.0,36.0,29.72,NNW,335,0.0,1.0,50,0.00,,,0.00,weatherlink.com 1.10,2014-09-30 07:32:00,
2014-09-30 01:47:00,54.2,37.0,29.72,NNW,327,1.0,3.0,52,0.00,,,0.00,weatherlink.com 1.10,2014-09-30 07:47:00,
2014-09-30 02:02:00,54.0,37.0,29.73,NNW,333,0.0,2.0,53,0.00,,,0.00,weatherlink.com 1.10,2014-09-30 08:02:00,
2014-09-30 02:17:00,53.1,38.0,29.73,NNW,333,0.0,0.0,56,0.00,,,0.00,weatherlink.com 1.10,2014-09-30 08:17:00,
2014-09-30 02:32:00,52.4,37.0,29.73,NNW,333,0.0,1.0,57,0.00,,,0.00,weatherlink.com 1.10,2014-09-30 08:32:00,
2014-09-30 02:47:00,51.5,37.0,29.73,NNW,333,0.0,0.0,59,0.00,,,0.00,weatherlink.com 1.10,2014-09-30 08:47:00,
2014-09-30 03:02:00,51.1,37.0,29.73,NNW,333,0.0,1.0,59,0.00,,,0.00,weatherlink.com 1.10,2014-09-30 09:02:00,
2014-09-30 03:17:00,51.0,37.0,29.73,NNW,333,0.0,1.0,59,0.00,,,0.00,weatherlink.com 1.10,2014-09-30 09:17:00,
2014-09-30 03:32:00,50.9,37.0,29.73,NNW,327,0.0,1.0,60,0.00,,,0.00,weatherlink.com 1.10,2014-09-30 09:32:00,
2014-09-30 03:47:00,50.1,37.0,29.74,NNW,327,0.0,0.0,62,0.00,,,0.00,weatherlink.com 1.10,2014-09-30 09:47:00,
2014-09-30 04:02:00,49.3,37.0,29.74,NNW,327,0.0,1.0,63,0.00,,,0.00,weatherlink.com 1.10,2014-09-30 10:02:00,
2014-09-30 04:17:00,48.9,38.0,29.73,North,355,0.0,1.0,65,0.00,,,0.00,weatherlink.com 1.10,2014-09-30 10:17:00,
2014-09-30 04:32:00,48.2,37.0,29.73,North,355,0.0,0.0,66,0.00,,,0.00,weatherlink.com 1.10,2014-09-30 10:32:00,
2014-09-30 04:47:00,48.0,38.0,29.73,North,355,0.0,0.0,68,0.00,,,0.00,weatherlink.com 1.10,2014-09-30 10:47:00,
2014-09-30 05:02:00,47.2,38.0,29.74,North,355,0.0,0.0,70,0.00,,,0.00,weatherlink.com 1.10,2014-09-30 11:02:00,
2014-09-30 05:17:00,46.8,38.0,29.74,North,355,0.0,0.0,72,0.00,,,0.00,weatherlink.com 1.10,2014-09-30 11:17:00,
2014-09-30 05:32:00,47.4,38.0,29.74,North,355,0.0,1.0,70,0.00,,,0.00,weatherlink.com 1.10,2014-09-30 11:32:00,
2014-09-30 05:47:00,47.5,38.0,29.75,North,356,0.0,0.0,70,0.00,,,0.00,weatherlink.com 1.10,2014-09-30 11:47:00,